Skip Page Navigation
NASA JPL Caltech
NASA Logo - Jet Propulsion Laboratory + View the NASA Portal
+ Center for Near-Earth Object Studies
JPL Home Earth Solar System Stars & Galaxies Technology
JPL Solar System Dynamics
BODIES ORBITS EPHEMERIDES TOOLS PHYSICAL DATA DISCOVERY FAQ SITE MAP
IMPORTANT: The SSD Announcement email list is now available. Major changes are coming in the near future, including possible hostname and/or URL changes. To be notified of such changes, subscribe to this email list.

Please visit this page for more details.


JPL Small-Body Database Browser
Search: [ help ]  
97892 (2000 QH63)
Classification: Main-belt Asteroid          SPK-ID: 2097892
Ephemeris | Orbit Diagram | Orbital Elements | Mission Design | Physical Parameters | Discovery Circumstances ]

[ show orbit diagram ]
Orbital Elements at Epoch 2458600.5 (2019-Apr-27.0) TDB
Reference: JPL 17 (heliocentric ecliptic J2000)
 Element Value Uncertainty (1-sigma)   Units 
e .0430783389376793 3.477e-08  
a 2.270041944305135 1.1184e-08 au
q 2.17225230802561 8.0493e-08 au
i 7.580739259495563 4.2227e-06 deg
node 83.1429124345642 3.9448e-05 deg
peri 12.66188358780038 7.9819e-05 deg
M 58.85110075338834 6.8466e-05 deg
tp 2458396.278557615563
(2018-Oct-04.77855762)
0.00023749 TDB
period 1249.249688064069
3.42
9.2318e-06
2.528e-08
d
yr
n .2881729756986235 2.1296e-09 deg/d
Q 2.36783158058466 1.1665e-08 au
  Orbit Determination Parameters
   # obs. used (total)      601  
   data-arc span      7258 days (19.87 yr)  
   first obs. used      1999-05-21  
   last obs. used      2019-04-04  
   planetary ephem.      DE431  
   SB-pert. ephem.      SB431-N16  
   condition code      0  
   norm. resid. RMS      .51192  
   source      ORB  
   producer      Otto Matic  
   solution date      2019-Jul-13 08:44:05  

Additional Information
 Earth MOID = 1.18951 au 
 Jupiter MOID = 2.7064 au 
 T_jup = 3.600 
[ show covariance matrix ]

Ephemeris | Orbit Diagram | Orbital Elements | Mission Design | Physical Parameters | Discovery Circumstances ]

Physical Parameter Table
Parameter Symbol Value Units Sigma Reference Notes
absolute magnitude H 16.0   n/a MPO426613  

97892 (2000 QH63)          Discovered 2000-Aug-28 by LINEAR at Socorro
Reference: 20050224/Numbers.arcLast Updated: 2005-02-28
Ephemeris | Orbit Diagram | Orbital Elements | Mission Design | Physical Parameters | Discovery Circumstances ]
ABOUT SSD CREDITS/AWARDS PRIVACY/COPYRIGHT GLOSSARY LINKS
FirstGov 2019-Oct-14 17:08 UT
(server date/time)  
NASA Home Page
Site Manager:   Ryan S. Park
Webmaster  Alan B. Chamberlin